Marshalltown, IA

1:06 PM CDT on July 27, 2017 (GMT -0500)
Marshalltown Municipal

Weather History for KMIW - June, 2013

Change the Weather History Date:

Saturday, June 8, 2013

  Actual Average Record
Temperature  
Mean Temperature 61 °F 68 °F  
Max Temperature 71 °F 78 °F 92 °F (2011)
Min Temperature 50 °F 57 °F 49 °F (2016)
Degree Days  
Heating Degree Days 4 1  
Month to date heating degree days 37 14  
Since 1 June heating degree days 37 14  
Since 1 July heating degree days 7016 6998  
Cooling Degree Days 0 4  
Month to date cooling degree days 0 29  
Year to date cooling degree days 61 79  
Since 1 June cooling degree days 0 29  
Growing Degree Days 11 (Base 50)    
Moisture  
Dew Point 55 °F    
Average Humidity 79    
Maximum Humidity 100    
Minimum Humidity 57    
Precipitation  
Precipitation 0.02 in 0.16 in 1.85 in (2008)
Month to date precipitation 1.11 1.43  
Sea Level Pressure  
Sea Level Pressure 29.89 in    
Wind  
Wind Speed 9 mph (SE)    
Max Wind Speed 22 mph    
Max Gust Speed 29 mph    
Visibility 10 miles    
Events Rain    
T = Trace of Precipitation, MM = Missing Value Source: NWS Daily Summary

Daily Weather History Graph

Daily Weather History Graph

Search for Another Location

Airport or City:

Trip Planner

Search our weather history database for the weather conditions in past years. The results will help you decide how hot, cold, wet, or windy it might be!

Date:

Astronomy

Jun. 08, 2013 Rise Set
Actual Time 5:35 AM CDT 8:46 PM CDT
Civil Twilight 5:01 AM CDT 9:20 PM CDT
Nautical Twilight 4:17 AM CDT 10:04 PM CDT
Astronomical Twilight 3:24 AM CDT 10:57 PM CDT
Moon 5:45 AM CDT (6/8) 8:48 PM CDT (6/8)
Length of Visible Light 16h 18m
Length of Day
15h 10m
New Moon, 0% of the Moon is Illuminated
Jun 8
New Moon
Jun 16
First Quarter
Jun 23
Full
Jun 29
Last Quarter
Jul 8
New

Hourly Weather History & Observations

Time (CDT) Temp. Dew Point Humidity Pressure Visibility Wind Dir Wind Speed Gust Speed Precip Events Conditions
12:53 AM 55.0 °F 54.0 °F 96% 29.93 in 10.0 mi SE 3.5 mph - N/A   Clear
1:53 AM 54.0 °F 53.1 °F 97% 29.92 in 10.0 mi ESE 3.5 mph - N/A   Clear
2:53 AM 53.1 °F 52.0 °F 96% 29.91 in 10.0 mi East 4.6 mph - N/A   Clear
3:53 AM 52.0 °F 51.1 °F 97% 29.91 in 10.0 mi East 3.5 mph - N/A   Clear
4:53 AM 51.1 °F 51.1 °F 100% 29.91 in 8.0 mi SE 3.5 mph - N/A   Clear
5:53 AM 51.1 °F 51.1 °F 100% 29.92 in 5.0 mi Calm Calm - N/A   Clear
6:53 AM 54.0 °F 54.0 °F 100% 29.90 in 5.0 mi East 4.6 mph - N/A   Clear
7:53 AM 59.0 °F 57.0 °F 93% 29.92 in 10.0 mi SSE 3.5 mph - N/A   Clear
8:53 AM 64.9 °F 55.9 °F 73% 29.92 in 10.0 mi South 4.6 mph - N/A   Clear
9:53 AM 66.9 °F 55.0 °F 66% 29.93 in 10.0 mi South 9.2 mph - N/A   Clear
10:53 AM 66.9 °F 55.0 °F 66% 29.92 in 10.0 mi SSW 9.2 mph - N/A   Clear
11:53 AM 68.0 °F 55.0 °F 63% 29.90 in 10.0 mi South 11.5 mph 18.4 mph N/A   Clear
12:53 PM 69.1 °F 55.0 °F 61% 29.90 in 10.0 mi South 11.5 mph - N/A   Partly Cloudy
1:53 PM 70.0 °F 55.0 °F 59% 29.89 in 10.0 mi SSE 11.5 mph - N/A   Clear
2:53 PM 70.0 °F 54.0 °F 57% 29.89 in 10.0 mi SSE 8.1 mph - N/A   Scattered Clouds
3:53 PM 71.1 °F 55.9 °F 59% 29.89 in 10.0 mi SE 6.9 mph - N/A   Scattered Clouds
4:53 PM 70.0 °F 55.0 °F 59% 29.89 in 10.0 mi SSE 9.2 mph - 0.00 in Rain Light Rain
5:53 PM 69.1 °F 55.0 °F 61% 29.86 in 10.0 mi ESE 12.7 mph - 0.00 in   Overcast
6:53 PM 66.9 °F 57.0 °F 70% 29.86 in 10.0 mi SE 9.2 mph - 0.00 in Rain Light Rain
7:53 PM 66.0 °F 57.9 °F 75% 29.84 in 10.0 mi ESE 9.2 mph - 0.01 in   Overcast
8:53 PM 64.0 °F 59.0 °F 84% 29.83 in 10.0 mi East 6.9 mph - 0.01 in   Overcast
9:53 PM 64.0 °F 57.9 °F 80% 29.82 in 10.0 mi East 12.7 mph - 0.00 in   Overcast
10:53 PM 64.9 °F 57.0 °F 75% 29.82 in 10.0 mi ESE 12.7 mph - N/A   Overcast
11:53 PM 66.9 °F 55.0 °F 66% 29.80 in 10.0 mi SE 18.4 mph - N/A   Overcast